CW8248 Weather Reports


Display with metric or nautical units.
time (UTC)temp
F
wind
direction
speed
MPH
gust
MPH
rain 1hr
in
rain 24hr
in
rain mn
in
humidity
%
barometer
mb
20260507115514 52 246 2.0 7.0 0.00 0.00 0.00 69 1018.4
20260507115013 52 356 0.0 4.0 0.00 0.00 0.00 69 1018.3
20260507114513 53 2 0.0 4.0 0.00 0.00 0.00 69 1018.4
20260507114012 53 265 0.0 10.0 0.00 0.00 0.00 70 1018.2
20260507113513 53 254 1.0 8.0 0.00 0.00 0.00 69 1018.4
20260507113015 53 271 1.0 8.0 0.00 0.00 0.00 69 1018.4
20260507112514 53 191 3.0 8.0 0.00 0.00 0.00 69 1018.4
20260507112010 53 269 2.0 9.0 0.00 0.00 0.00 69 1018.3
20260507111509 54 250 1.0 9.0 0.00 0.00 0.00 68 1018.1
20260507111008 53 246 0.0 8.0 0.00 0.00 0.00 68 1018.2
20260507110508 53 252 1.0 11.0 0.00 0.00 0.00 69 1018.2
20260507110008 54 261 1.0 11.0 0.00 0.00 0.00 69 1018.0
20260507105505 54 238 1.0 9.0 0.00 0.00 0.00 68 1018.2
20260507105010 54 245 3.0 9.0 0.00 0.00 0.00 68 1018.1
20260507104506 54 246 3.0 13.0 0.00 0.00 0.00 68 1018.0
20260507104005 54 240 4.0 13.0 0.00 0.00 0.00 68 1017.8
20260507103504 54 240 3.0 11.0 0.00 0.00 0.00 67 1017.9
20260507103003 54 215 5.0 12.0 0.00 0.00 0.00 68 1017.9
20260507102502 54 191 2.0 11.0 0.00 0.00 0.00 67 1017.9
20260507102101 55 271 4.0 11.0 0.00 0.00 0.00 67 1018.0
20260507101613 55 257 5.0 9.0 0.00 0.00 0.00 66 1018.0
20260507101100 55 266 3.0 9.0 0.00 0.00 0.00 66 1018.1
20260507100557 55 250 2.0 12.0 0.00 0.00 0.00 66 1018.0
20260507095556 56 241 4.0 10.0 0.00 0.00 0.00 64 1017.9
20260507095056 56 246 1.0 12.0 0.00 0.00 0.00 64 1017.9
20260507094604 56 341 5.0 12.0 0.00 0.00 0.00 63 1018.0
20260507094059 56 237 2.0 8.0 0.00 0.00 0.00 64 1017.9
20260507093554 56 15 3.0 11.0 0.00 0.00 0.00 64 1018.0
20260507093055 56 220 3.0 11.0 0.00 0.00 0.00 64 1018.1
20260507092554 57 217 2.0 12.0 0.00 0.00 0.00 64 1018.0
20260507092058 57 253 5.0 12.0 0.00 0.00 0.00 64 1017.9
20260507091553 57 211 1.0 16.0 0.00 0.00 0.00 64 1017.9
20260507091053 57 237 3.0 16.0 0.00 0.00 0.00 64 1017.9
20260507090553 57 265 5.0 10.0 0.00 0.00 0.00 64 1018.0
20260507090053 57 273 3.0 8.0 0.00 0.00 0.00 65 1018.0
20260507085553 57 264 0.0 10.0 0.00 0.00 0.00 64 1018.0
20260507085053 58 249 4.0 10.0 0.00 0.00 0.00 64 1018.1
20260507084558 58 262 2.0 11.0 0.00 0.00 0.00 64 1018.1
20260507084054 58 237 2.0 15.0 0.00 0.00 0.00 63 1018.2
20260507083551 58 257 7.0 13.0 0.00 0.00 0.00 65 1018.1
20260507083052 58 265 7.0 13.0 0.00 0.00 0.00 64 1018.0
20260507082550 57 223 3.0 15.0 0.00 0.00 0.00 64 1018.1
20260507082049 57 191 6.0 16.0 0.00 0.00 0.00 65 1018.2
20260507081548 57 244 8.0 16.0 0.00 0.00 0.00 67 1018.1
20260507081047 57 237 6.0 15.0 0.00 0.00 0.00 67 1018.1
20260507080547 57 227 6.0 12.0 0.00 0.00 0.00 67 1018.1
20260507080057 57 11 3.0 9.0 0.00 0.00 0.00 68 1018.3
20260507075545 57 223 2.0 11.0 0.00 0.00 0.00 68 1018.3
20260507075045 57 231 2.0 11.0 0.00 0.00 0.00 68 1018.2
20260507074545 57 242 2.0 11.0 0.00 0.00 0.00 67 1018.2
20260507074044 57 240 3.0 13.0 0.00 0.00 0.00 66 1018.2
20260507073544 57 244 5.0 11.0 0.00 0.00 0.00 67 1018.2
20260507073048 57 265 4.0 11.0 0.00 0.00 0.00 66 1018.2
20260507072543 57 248 5.0 12.0 0.00 0.00 0.00 67 1018.1
20260507072041 57 273 6.0 12.0 0.00 0.00 0.00 67 1018.1
20260507071540 57 256 3.0 11.0 0.00 0.00 0.00 69 1018.2
20260507071043 56 265 4.0 12.0 0.00 0.00 0.00 71 1018.1
20260507070537 57 245 6.0 12.0 0.00 0.00 0.00 69 1018.2
20260507070037 57 234 3.0 10.0 0.00 0.00 0.00 69 1018.2
20260507065538 57 248 3.0 7.0 0.00 0.00 0.00 68 1018.2
20260507065036 57 240 0.0 8.0 0.00 0.00 0.00 68 1018.3
20260507064536 57 243 2.0 5.0 0.00 0.00 0.00 68 1018.3
20260507064036 57 235 1.0 5.0 0.00 0.00 0.00 69 1018.3
20260507063536 57 248 1.0 5.0 0.00 0.00 0.00 68 1018.3
20260507063037 57 225 0.0 6.0 0.00 0.00 0.00 69 1018.3
20260507062536 58 225 1.0 7.0 0.00 0.00 0.00 68 1018.3
20260507062036 58 223 1.0 7.0 0.00 0.00 0.00 67 1018.3
20260507061535 58 325 0.0 5.0 0.00 0.00 0.00 67 1018.4
20260507061034 58 137 2.0 8.0 0.00 0.00 0.00 68 1018.3
20260507060534 58 236 2.0 8.0 0.00 0.00 0.00 68 1018.3
20260507060035 57 221 0.0 6.0 0.00 0.00 0.00 69 1018.3
20260507055535 57 213 0.0 9.0 0.00 0.00 0.00 69 1018.2
20260507055034 57 242 4.0 10.0 0.00 0.00 0.00 69 1018.3
20260507054538 58 252 6.0 11.0 0.00 0.00 0.00 68 1018.3
20260507054034 58 232 7.0 11.0 0.00 0.00 0.00 67 1018.4
20260507053534 59 225 2.0 9.0 0.00 0.00 0.00 66 1018.5
20260507053035 59 244 5.0 9.0 0.00 0.00 0.00 65 1018.5
20260507052534 59 223 3.0 10.0 0.00 0.00 0.00 64 1018.5
20260507052034 59 244 3.0 10.0 0.00 0.00 0.00 66 1018.6
20260507051534 60 229 2.0 9.0 0.00 0.00 0.00 64 1018.6
20260507051033 61 196 4.0 6.0 0.00 0.00 0.00 61 1018.5
20260507050533 61 251 2.0 7.0 0.00 0.00 0.00 57 1018.6
20260507050034 61 333 3.0 14.0 0.00 0.00 0.00 57 1018.6
20260507045533 61 13 2.0 14.0 0.00 0.00 0.00 58 1018.5
20260507045033 61 322 0.0 6.0 0.00 0.00 0.00 58 1018.6
20260507044532 61 75 1.0 6.0 0.00 0.00 0.00 60 1018.4
20260507044031 61 240 0.0 4.0 0.00 0.00 0.00 60 1018.5
20260507043531 62 191 0.0 9.0 0.00 0.00 0.00 57 1018.5
20260507043031 62 17 2.0 9.0 0.00 0.00 0.00 57 1018.4
20260507042532 61 191 2.0 7.0 0.00 0.00 0.00 58 1018.5
20260507042030 61 46 1.0 7.0 0.00 0.00 0.00 59 1018.3
20260507041529 62 227 3.0 8.0 0.00 0.00 0.00 58 1018.2
20260507041029 62 354 3.0 8.0 0.00 0.00 0.00 58 1018.2
20260507040529 62 82 2.0 5.0 0.00 0.00 0.00 58 1018.2
20260507040029 62 73 1.0 6.0 0.00 0.00 0.00 58 1017.9
20260507035529 62 27 3.0 6.0 0.00 0.00 0.00 58 1018.1
20260507035029 62 144 2.0 5.0 0.00 0.00 0.00 58 1017.9
20260507034529 62 144 0.0 5.0 0.00 0.00 0.00 57 1017.9
20260507034028 62 62 0.0 6.0 0.00 0.00 0.00 58 1017.8
20260507033528 62 138 2.0 9.0 0.00 0.00 0.00 57 1017.8
20260507033031 62 155 4.0 9.0 0.00 0.00 0.00 57 1017.7
20260507032528 62 135 0.0 8.0 0.00 0.00 0.00 57 1017.7
20260507032028 62 135 1.0 12.0 0.00 0.00 0.00 58 1017.6
20260507031527 62 261 6.0 12.0 0.00 0.00 0.00 57 1017.7
20260507031028 62 221 0.0 7.0 0.00 0.00 0.00 57 1017.6
20260507030528 62 186 2.0 9.0 0.00 0.00 0.00 59 1017.6
20260507030028 62 235 5.0 10.0 0.00 0.00 0.00 58 1017.6
20260507025527 62 191 3.0 10.0 0.00 0.00 0.00 58 1017.6
20260507025028 63 217 4.0 10.0 0.00 0.00 0.00 58 1017.5
20260507024527 63 232 1.0 8.0 0.00 0.00 0.00 57 1017.6
20260507024028 63 148 2.0 8.0 0.00 0.00 0.00 57 1017.5
20260507023526 63 237 1.0 5.0 0.00 0.00 0.00 56 1017.4
20260507023027 63 191 1.0 7.0 0.00 0.00 0.00 57 1017.4
20260507022526 64 62 0.0 10.0 0.00 0.00 0.00 55 1017.3
20260507022026 64 259 4.0 10.0 0.00 0.00 0.00 54 1017.3
20260507021526 64 191 2.0 10.0 0.00 0.00 0.00 53 1017.3
20260507021026 64 191 3.0 18.0 0.00 0.00 0.00 55 1017.3
20260507020526 65 191 3.0 19.0 0.00 0.00 0.00 53 1017.3
20260507020030 65 359 3.0 16.0 0.00 0.00 0.00 53 1017.3
20260507015525 65 191 5.0 16.0 0.00 0.00 0.00 51 1017.2
20260507015025 65 248 4.0 12.0 0.00 0.00 0.00 52 1017.2
20260507014530 65 323 2.0 18.0 0.00 0.00 0.00 53 1017.2
20260507014026 65 327 5.0 18.0 0.00 0.00 0.00 52 1017.1
20260507013526 65 245 5.0 19.0 0.00 0.00 0.00 53 1017.1
20260507013041 65 191 4.0 20.0 0.00 0.00 0.00 52 1017.2
20260507012526 65 262 6.0 20.0 0.00 0.00 0.00 51 1017.2
20260507012025 65 248 5.0 16.0 0.00 0.00 0.00 51 1017.2
20260507011525 65 269 7.0 19.0 0.00 0.00 0.00 52 1017.2
20260507011025 65 252 9.0 28.0 0.00 0.00 0.00 51 1017.2
20260507010524 66 250 8.0 17.0 0.00 0.00 0.00 52 1017.3
20260507010032 66 221 8.0 19.0 0.00 0.00 0.00 51 1017.2
20260507005523 65 259 8.0 24.0 0.00 0.00 0.00 52 1017.2
20260507005023 65 242 7.0 24.0 0.00 0.00 0.00 51 1017.4
20260507004524 65 235 8.0 23.0 0.00 0.00 0.00 53 1017.3
20260507004024 65 265 9.0 26.0 0.00 0.00 0.00 52 1017.2
20260507003523 65 242 13.0 26.0 0.00 0.00 0.00 52 1017.1
20260507003028 65 191 8.0 23.0 0.00 0.00 0.00 52 1017.1
20260507002522 65 227 8.0 19.0 0.00 0.00 0.00 53 1017.1
20260507002023 64 191 6.0 17.0 0.00 0.00 0.00 53 1017.1
20260507001522 64 271 9.0 25.0 0.00 0.00 0.00 53 1017.1
20260507001021 65 254 9.0 20.0 0.00 0.00 0.00 53 1017.0
20260507000521 65 260 7.0 20.0 0.00 0.00 0.00 52 1017.1
20260507000022 65 191 9.0 21.0 0.00 0.00 0.00 52 1017.1
20260506235523 65 242 8.0 21.0 0.00 0.00 0.00 52 1017.0
20260506235021 65 247 4.0 13.0 0.00 0.00 0.00 52 1017.1
20260506234521 65 310 6.0 19.0 0.00 0.00 0.00 53 1017.1
20260506234021 65 253 8.0 17.0 0.00 0.00 0.00 52 1017.1
20260506233521 65 269 9.0 17.0 0.00 0.00 0.00 52 1017.0
20260506233021 65 260 7.0 20.0 0.00 0.00 0.00 53 1017.1
20260506232520 65 267 10.0 20.0 0.00 0.00 0.00 52 1017.0
20260506232020 65 261 8.0 18.0 0.00 0.00 0.00 53 1017.1
20260506231520 65 253 10.0 18.0 0.00 0.00 0.00 53 1017.0
20260506231019 65 272 5.0 13.0 0.00 0.00 0.00 52 1017.0
20260506230519 66 191 8.0 17.0 0.00 0.00 0.00 52 1017.1
20260506230020 66 248 5.0 17.0 0.00 0.00 0.00 51 1017.0
20260506225519 66 244 6.0 13.0 0.00 0.00 0.00 50 1017.0
20260506225019 66 265 6.0 19.0 0.00 0.00 0.00 50 1017.0
20260506224519 66 272 5.0 15.0 0.00 0.00 0.00 50 1017.0
20260506224018 67 265 8.0 16.0 0.00 0.00 0.00 51 1017.0
20260506223518 67 252 5.0 18.0 0.00 0.00 0.00 49 1017.0
20260506223018 67 245 6.0 18.0 0.00 0.00 0.00 49 1017.1
20260506222518 67 191 5.0 19.0 0.00 0.00 0.00 49 1017.1
20260506222021 67 267 5.0 19.0 0.00 0.00 0.00 50 1017.1
20260506221518 68 273 7.0 17.0 0.00 0.00 0.00 49 1017.1
20260506221017 68 307 8.0 19.0 0.00 0.00 0.00 48 1017.0
20260506220518 69 263 8.0 24.0 0.00 0.00 0.00 48 1017.1
20260506220018 69 249 9.0 24.0 0.00 0.00 0.00 49 1016.9
20260506215517 70 254 10.0 21.0 0.00 0.00 0.00 48 1016.9
20260506215019 70 267 9.0 24.0 0.00 0.00 0.00 48 1017.0
20260506214531 70 191 10.0 25.0 0.00 0.00 0.00 50 1017.0
20260506214017 69 271 11.0 25.0 0.00 0.00 0.00 48 1017.1
20260506213517 70 313 13.0 24.0 0.00 0.00 0.00 49 1017.1
20260506213019 69 191 11.0 24.0 0.00 0.00 0.00 51 1017.3
20260506212515 69 271 15.0 22.0 0.00 0.00 0.00 50 1017.4
20260506212015 68 267 11.0 26.0 0.00 0.00 0.00 50 1017.5
20260506211514 68 250 15.0 31.0 0.00 0.00 0.00 50 1017.4
20260506211014 68 240 15.0 31.0 0.00 0.00 0.00 48 1017.3
20260506210515 69 259 15.0 22.0 0.00 0.00 0.00 51 1017.3
20260506210019 69 254 10.0 26.0 0.00 0.00 0.00 51 1017.5
20260506205512 68 244 13.0 26.0 0.00 0.00 0.00 53 1017.5
20260506205014 68 265 16.0 27.0 0.00 0.00 0.00 52 1017.5
20260506204513 67 256 14.0 27.0 0.00 0.00 0.00 53 1017.6
20260506204013 68 267 15.0 31.0 0.00 0.00 0.00 51 1017.5
20260506203512 68 227 13.0 21.0 0.00 0.00 0.00 52 1017.6
20260506203012 68 252 13.0 24.0 0.00 0.00 0.00 54 1017.7
20260506202512 67 271 14.0 24.0 0.00 0.00 0.00 52 1017.7
20260506202012 68 245 13.0 24.0 0.00 0.00 0.00 50 1017.6
20260506201512 68 296 12.0 23.0 0.00 0.00 0.00 52 1017.8
20260506201012 68 271 15.0 26.0 0.00 0.00 0.00 54 1017.8
20260506200509 67 209 14.0 25.0 0.00 0.00 0.00 52 1017.7
20260506200008 67 244 16.0 25.0 0.00 0.00 0.00 54 1017.8
20260506195508 67 254 13.0 23.0 0.00 0.00 0.00 54 1017.9
20260506195008 66 276 16.0 24.0 0.00 0.00 0.00 54 1017.8
20260506194508 66 252 14.0 29.0 0.00 0.00 0.00 55 1017.8
20260506194007 66 222 18.0 30.0 0.00 0.00 0.00 54 1017.7
20260506193507 67 254 15.0 30.0 0.00 0.00 0.00 55 1017.8
20260506193007 67 250 17.0 29.0 0.00 0.00 0.00 55 1017.7
20260506192508 66 239 15.0 29.0 0.00 0.00 0.00 55 1017.9
20260506192007 67 271 15.0 31.0 0.00 0.00 0.00 55 1017.7
20260506191506 67 241 18.0 32.0 0.00 0.00 0.00 55 1017.8
20260506191007 67 275 17.0 28.0 0.00 0.00 0.00 55 1017.7
20260506190504 67 240 12.0 26.0 0.00 0.00 0.00 57 1017.9
20260506190008 65 269 13.0 26.0 0.00 0.00 0.00 60 1017.8
20260506185504 66 248 19.0 28.0 0.00 0.00 0.00 56 1017.8
20260506185003 66 235 17.0 28.0 0.00 0.00 0.00 57 1017.8
20260506184503 66 231 15.0 29.0 0.00 0.00 0.00 56 1017.9
20260506184006 66 229 16.0 29.0 0.00 0.00 0.00 56 1017.9
20260506183504 66 223 13.0 26.0 0.00 0.00 0.00 56 1018.0
20260506183005 66 251 16.0 26.0 0.00 0.00 0.00 56 1017.9
20260506182501 66 267 14.0 25.0 0.00 0.00 0.00 55 1018.0
20260506182003 66 191 10.0 27.0 0.00 0.00 0.00 58 1017.9
20260506181624 66 272 13.0 27.0 0.00 0.00 0.00 56 1017.8
20260506181059 66 244 14.0 27.0 0.00 0.00 0.00 58 1017.9
20260506180601 66 227 14.0 25.0 0.00 0.00 0.00 58 1017.8
20260506180059 66 191 15.0 25.0 0.00 0.00 0.00 59 1017.6
20260506175556 66 235 14.0 22.0 0.00 0.00 0.00 58 1018.0
20260506175055 65 260 8.0 25.0 0.00 0.00 0.00 58 1018.0
20260506174555 66 242 11.0 28.0 0.00 0.00 0.00 59 1018.1
20260506174055 65 248 16.0 28.0 0.00 0.00 0.00 57 1017.9
20260506173553 65 266 14.0 29.0 0.00 0.00 0.00 58 1018.2
20260506173100 65 259 16.0 30.0 0.00 0.00 0.00 58 1018.1
20260506172552 65 308 19.0 30.0 0.00 0.00 0.00 56 1018.1
20260506172050 64 224 10.0 24.0 0.00 0.00 0.00 60 1018.1
20260506171548 63 234 10.0 23.0 0.00 0.00 0.00 64 1018.0
20260506171047 62 281 9.0 22.0 0.00 0.00 0.00 67 1018.1
20260506170546 62 242 9.0 22.0 0.00 0.00 0.00 68 1018.0
20260506170049 61 191 10.0 25.0 0.00 0.00 0.00 67 1017.8
20260506165545 61 265 13.0 25.0 0.00 0.00 0.00 66 1017.6
20260506165045 61 249 14.0 27.0 0.00 0.00 0.00 67 1017.7
20260506164547 60 252 14.0 26.0 0.00 0.00 0.00 68 1017.7
20260506164043 59 249 15.0 24.0 0.00 0.00 0.00 68 1017.7
20260506163543 60 260 11.0 23.0 0.00 0.00 0.00 66 1017.8
20260506163044 62 191 10.0 23.0 0.00 0.00 0.00 65 1017.7
20260506162542 62 191 10.0 21.0 0.00 0.00 0.00 64 1017.7
20260506162044 62 258 10.0 21.0 0.00 0.00 0.00 66 1017.9
20260506161546 62 245 9.0 21.0 0.00 0.00 0.00 65 1018.1
20260506161041 62 246 7.0 20.0 0.00 0.00 0.00 63 1018.2
20260506160541 63 250 10.0 21.0 0.00 0.00 0.00 64 1018.2
20260506160046 63 191 6.0 18.0 0.00 0.00 0.00 62 1018.3
20260506155540 62 191 4.0 22.0 0.00 0.00 0.00 64 1018.3
20260506155036 62 260 12.0 22.0 0.00 0.00 0.00 64 1018.0
20260506154535 61 244 10.0 19.0 0.00 0.00 0.00 65 1018.0
20260506154034 61 191 4.0 21.0 0.00 0.00 0.00 68 1018.1
20260506153532 60 259 8.0 15.0 0.00 0.00 0.00 68 1018.0
20260506153031 60 259 5.0 15.0 0.00 0.00 0.00 68 1018.0
20260506152530 60 262 5.0 14.0 0.00 0.00 0.00 67 1017.9
20260506152029 58 246 4.0 16.0 0.00 0.00 0.00 70 1017.8
20260506151528 58 265 5.0 16.0 0.00 0.00 0.00 70 1017.8
20260506151026 58 191 3.0 16.0 0.00 0.00 0.00 70 1017.9
20260506150526 58 191 4.0 16.0 0.00 0.00 0.00 70 1017.7
20260506150027 58 315 4.0 16.0 0.00 0.00 0.00 71 1017.5
20260506145524 58 270 4.0 13.0 0.00 0.00 0.00 71 1017.6
20260506145024 58 319 4.0 12.0 0.00 0.00 0.00 71 1017.6
20260506144522 58 191 4.0 17.0 0.00 0.00 0.00 70 1017.7
20260506144021 58 265 6.0 19.0 0.00 0.00 0.00 71 1017.6
20260506143521 57 244 10.0 20.0 0.00 0.00 0.00 72 1017.6
20260506143022 57 240 12.0 20.0 0.00 0.00 0.00 73 1017.7
20260506142519 57 257 11.0 17.0 0.00 0.00 0.00 73 1017.7
20260506142017 57 273 7.0 17.0 0.00 0.00 0.00 73 1017.7
20260506141516 57 265 6.0 18.0 0.00 0.00 0.00 72 1017.6
20260506141015 57 262 8.0 18.0 0.00 0.00 0.00 72 1017.6
20260506140515 57 248 7.0 15.0 0.00 0.00 0.00 71 1017.6
20260506140016 57 191 3.0 11.0 0.00 0.00 0.00 71 1017.6
20260506135513 57 238 4.0 11.0 0.00 0.00 0.00 69 1017.5
20260506135012 58 269 4.0 11.0 0.00 0.00 0.00 68 1017.5
20260506134511 58 259 3.0 11.0 0.00 0.00 0.00 67 1017.4
20260506134017 58 248 2.0 13.0 0.00 0.00 0.00 67 1017.4
20260506133511 58 244 4.0 12.0 0.00 0.00 0.00 66 1017.4
20260506133012 58 263 4.0 12.0 0.00 0.00 0.00 67 1017.3
20260506132511 58 317 4.0 13.0 0.00 0.00 0.00 67 1017.3
20260506132009 58 191 1.0 13.0 0.00 0.00 0.00 67 1017.3
20260506131508 58 191 2.0 16.0 0.00 0.00 0.00 67 1017.2
20260506131007 58 267 5.0 16.0 0.00 0.00 0.00 67 1017.2
20260506130507 58 266 6.0 12.0 0.00 0.00 0.00 68 1017.2
20260506130008 58 256 6.0 12.0 0.00 0.00 0.00 68 1017.2
20260506125505 58 269 5.0 12.0 0.00 0.00 0.00 68 1017.2
20260506125005 57 248 5.0 12.0 0.00 0.00 0.00 68 1017.1
20260506124504 58 269 4.0 11.0 0.00 0.00 0.00 67 1017.2
20260506124006 57 257 2.0 12.0 0.00 0.00 0.00 68 1017.2
20260506123503 58 252 6.0 12.0 0.00 0.00 0.00 68 1017.0
20260506123002 57 271 3.0 11.0 0.00 0.00 0.00 68 1017.0
20260506122501 57 191 5.0 16.0 0.00 0.00 0.00 68 1016.9
20260506122100 58 266 7.0 16.0 0.00 0.00 0.00 67 1016.9
20260506121600 58 260 7.0 18.0 0.00 0.00 0.00 67 1016.8
20260506121101 58 260 10.0 18.0 0.00 0.00 0.00 67 1016.7
20260506120557 58 191 9.0 19.0 0.00 0.00 0.00 67 1016.6
20260506120058 58 233 10.0 19.0 0.00 0.00 0.00 67 1016.6